When you browse on this site, cookies collect data to enhance your experience and personalize the content and advertising you see.
Visit our Privacy Policy to learn more. By continuing to use the site, you agree to this use of cookies and data.
EN

Hourly Weather Saush

Today, 18 September, Friday

Time Temperature Precipitation Wind Pressure Humidity
00:00 +7°C° 0 mm 5 mps 752 mmHg 79%
01:00 +8°C° 0 mm 6 mps 751 mmHg 77%
02:00 +8°C° 0 mm 6 mps 751 mmHg 75%
03:00 +9°C° 0 mm 8 mps 750 mmHg 70%
04:00 +9°C° 0 mm 7 mps 749 mmHg 70%
05:00 +9°C° 0 mm 7 mps 749 mmHg 69%
06:00 +9°C° 0 mm 7 mps 748 mmHg 69%
07:00 +10°C° 0 mm 7 mps 748 mmHg 66%
08:00 +12°C° 0 mm 8 mps 748 mmHg 64%
09:00 +13°C° 0 mm 8 mps 748 mmHg 61%
10:00 +15°C° 0 mm 8 mps 748 mmHg 58%
11:00 +16°C° 0 mm 8 mps 748 mmHg 55%
12:00 +17°C° 0 mm 8 mps 748 mmHg 52%
13:00 +17°C° 0 mm 8 mps 748 mmHg 52%
14:00 +18°C° 0 mm 7 mps 748 mmHg 52%
15:00 +19°C° 0 mm 6 mps 747 mmHg 54%
16:00 +17°C° 0 mm 5 mps 747 mmHg 57%
17:00 +15°C° 0 mm 5 mps 747 mmHg 61%
18:00 +14°C° 0 mm 4 mps 747 mmHg 65%
19:00 +12°C° 0 mm 3 mps 747 mmHg 72%
20:00 +12°C° 0 mm 2 mps 748 mmHg 80%
21:00 +10°C° 0 mm 1 mps 748 mmHg 87%
22:00 +10°C° 0 mm 1 mps 747 mmHg 87%
23:00 +9°C° 0 mm 2 mps 747 mmHg 86%

Tomorrow, 19 September, Saturday

Time Temperature Precipitation Wind Pressure Humidity
00:00 +9°C° 0 mm 2 mps 746 mmHg 85%
01:00 +9°C° 0 mm 2 mps 746 mmHg 84%
02:00 +10°C° 0 mm 1 mps 745 mmHg 83%
03:00 +10°C° 0 mm 1 mps 745 mmHg 82%
04:00 +10°C° 0.3 mm 1 mps 745 mmHg 84%
05:00 +10°C° 0.3 mm 1 mps 744 mmHg 86%
06:00 +10°C° 0.3 mm 1 mps 744 mmHg 89%
07:00 +11°C° 0.6 mm 1 mps 743 mmHg 91%
08:00 +10°C° 0.6 mm 2 mps 743 mmHg 92%
09:00 +10°C° 0.6 mm 2 mps 743 mmHg 94%
10:00 +10°C° 0.2 mm 2 mps 743 mmHg 90%
11:00 +12°C° 0.2 mm 2 mps 743 mmHg 87%
12:00 +12°C° 0.2 mm 2 mps 742 mmHg 83%
13:00 +13°C° 0.1 mm 2 mps 742 mmHg 78%
14:00 +14°C° 0.1 mm 2 mps 742 mmHg 72%
15:00 +15°C° 0.1 mm 2 mps 742 mmHg 67%
16:00 +12°C° 0.1 mm 3 mps 742 mmHg 74%
17:00 +9°C° 0.1 mm 5 mps 742 mmHg 80%
18:00 +8°C° 0.1 mm 6 mps 743 mmHg 87%
19:00 +7°C° 0 mm 6 mps 743 mmHg 86%
20:00 +7°C° 0 mm 5 mps 743 mmHg 84%
21:00 +7°C° 0 mm 4 mps 743 mmHg 83%
22:00 +6°C° 0 mm 4 mps 743 mmHg 86%
23:00 +5°C° 0 mm 4 mps 742 mmHg 90%

Day after tomorrow, 20 September, Sunday

Time Temperature Precipitation Wind Pressure Humidity
00:00 +4°C° 0 mm 4 mps 742 mmHg 94%
01:00 +4°C° 0 mm 4 mps 742 mmHg 95%
02:00 +3°C° 0 mm 4 mps 742 mmHg 95%
03:00 +3°C° 0 mm 3 mps 742 mmHg 96%
04:00 +3°C° 0 mm 3 mps 742 mmHg 96%
05:00 +3°C° 0 mm 3 mps 742 mmHg 96%
06:00 +3°C° 0 mm 3 mps 742 mmHg 96%
07:00 +4°C° 0 mm 4 mps 742 mmHg 92%
08:00 +5°C° 0 mm 4 mps 742 mmHg 89%
09:00 +6°C° 0 mm 4 mps 742 mmHg 85%
10:00 +6°C° 0.1 mm 5 mps 742 mmHg 83%
11:00 +7°C° 0.1 mm 5 mps 742 mmHg 81%
12:00 +7°C° 0.1 mm 6 mps 742 mmHg 80%
13:00 +7°C° 0.1 mm 6 mps 743 mmHg 80%
14:00 +7°C° 0.1 mm 6 mps 743 mmHg 81%
15:00 +7°C° 0.1 mm 6 mps 744 mmHg 81%
16:00 +5°C° 0 mm 6 mps 744 mmHg 82%
17:00 +4°C° 0 mm 6 mps 745 mmHg 82%
18:00 +5°C° 0 mm 5 mps 745 mmHg 83%
19:00 +4°C° 0 mm 6 mps 745 mmHg 84%
20:00 +4°C° 0 mm 6 mps 746 mmHg 85%
21:00 +4°C° 0 mm 6 mps 746 mmHg 86%
22:00 +4°C° 0.1 mm 6 mps 747 mmHg 87%
23:00 +4°C° 0.1 mm 6 mps 747 mmHg 87%

21 September, Monday

Time Temperature Precipitation Wind Pressure Humidity
00:00 +5°C° 0.1 mm 5 mps 747 mmHg 88%
01:00 +4°C° 0.1 mm 6 mps 747 mmHg 86%
02:00 +4°C° 0.1 mm 6 mps 747 mmHg 85%
03:00 +4°C° 0.1 mm 7 mps 747 mmHg 84%
04:00 +4°C° 0 mm 6 mps 747 mmHg 84%
05:00 +4°C° 0 mm 6 mps 747 mmHg 85%
06:00 +3°C° 0 mm 6 mps 748 mmHg 85%
07:00 +4°C° 0 mm 6 mps 748 mmHg 83%
08:00 +4°C° 0 mm 6 mps 748 mmHg 81%
09:00 +5°C° 0 mm 6 mps 748 mmHg 79%
10:00 +7°C° 0 mm 6 mps 748 mmHg 74%
11:00 +8°C° 0 mm 7 mps 748 mmHg 70%
12:00 +9°C° 0 mm 7 mps 747 mmHg 66%
13:00 +8°C° 0.4 mm 7 mps 747 mmHg 73%
14:00 +6°C° 0.4 mm 7 mps 746 mmHg 81%
15:00 +5°C° 0.4 mm 7 mps 746 mmHg 89%
16:00 +6°C° 1.1 mm 7 mps 745 mmHg 90%
17:00 +6°C° 1.1 mm 7 mps 745 mmHg 91%
18:00 +6°C° 1.1 mm 8 mps 744 mmHg 92%
19:00 +6°C° 0.5 mm 7 mps 744 mmHg 88%
20:00 +6°C° 0.5 mm 7 mps 744 mmHg 85%
21:00 +6°C° 0.5 mm 7 mps 745 mmHg 81%
22:00 +5°C° 0 mm 7 mps 745 mmHg 83%
23:00 +4°C° 0 mm 7 mps 746 mmHg 85%

22 September, Tuesday

Time Temperature Precipitation Wind Pressure Humidity
00:00 +3°C° 0 mm 7 mps 746 mmHg 87%
01:00 +3°C° 0 mm 7 mps 747 mmHg 87%
02:00 +3°C° 0 mm 7 mps 748 mmHg 86%
03:00 +3°C° 0 mm 7 mps 749 mmHg 86%
04:00 +3°C° 0 mm 6 mps 750 mmHg 87%
05:00 +3°C° 0 mm 6 mps 751 mmHg 87%
06:00 +3°C° 0 mm 5 mps 751 mmHg 88%
07:00 +3°C° 0 mm 5 mps 752 mmHg 84%
08:00 +5°C° 0 mm 5 mps 753 mmHg 81%
09:00 +6°C° 0 mm 5 mps 753 mmHg 77%
10:00 +7°C° 0 mm 5 mps 754 mmHg 73%
11:00 +8°C° 0 mm 5 mps 754 mmHg 70%
12:00 +9°C° 0 mm 5 mps 755 mmHg 66%
13:00 +9°C° 0 mm 5 mps 755 mmHg 64%
14:00 +10°C° 0 mm 5 mps 755 mmHg 62%
15:00 +10°C° 0 mm 5 mps 755 mmHg 60%
16:00 +10°C° 0 mm 4 mps 755 mmHg 66%
17:00 +8°C° 0 mm 4 mps 755 mmHg 71%
18:00 +7°C° 0 mm 4 mps 755 mmHg 77%
19:00 +7°C° 0 mm 4 mps 755 mmHg 77%
20:00 +7°C° 0 mm 4 mps 755 mmHg 77%
21:00 +7°C° 0 mm 4 mps 755 mmHg 77%
22:00 +7°C° 0 mm 5 mps 754 mmHg 80%
23:00 +7°C° 0 mm 5 mps 754 mmHg 82%

23 September, Wednesday

Time Temperature Precipitation Wind Pressure Humidity
00:00 +7°C° 0 mm 5 mps 754 mmHg 84%
01:00 +8°C° 0 mm 5 mps 754 mmHg 86%
02:00 +8°C° 0 mm 5 mps 754 mmHg 87%
03:00 +8°C° 0 mm 5 mps 754 mmHg 89%
04:00 +8°C° 0 mm 5 mps 754 mmHg 91%
05:00 +8°C° 0 mm 5 mps 754 mmHg 94%
06:00 +8°C° 0 mm 5 mps 754 mmHg 97%
07:00 +9°C° 0 mm 5 mps 755 mmHg 94%
08:00 +10°C° 0 mm 5 mps 755 mmHg 91%
09:00 +12°C° 0 mm 5 mps 755 mmHg 88%
10:00 +14°C° 0 mm 5 mps 755 mmHg 82%
11:00 +15°C° 0 mm 5 mps 755 mmHg 76%
12:00 +17°C° 0 mm 5 mps 755 mmHg 70%
13:00 +17°C° 0 mm 5 mps 755 mmHg 69%
14:00 +17°C° 0 mm 5 mps 755 mmHg 68%
15:00 +19°C° 0 mm 5 mps 755 mmHg 66%
16:00 +16°C° 0 mm 5 mps 755 mmHg 72%
17:00 +15°C° 0 mm 4 mps 755 mmHg 78%
18:00 +13°C° 0 mm 4 mps 755 mmHg 83%
19:00 +13°C° 0 mm 4 mps 756 mmHg 84%
20:00 +12°C° 0 mm 4 mps 756 mmHg 86%
21:00 +12°C° 0 mm 3 mps 756 mmHg 87%
22:00 +11°C° 0 mm 3 mps 756 mmHg 88%
23:00 +11°C° 0 mm 3 mps 756 mmHg 89%
Show more